ASNARO                  
1 40298U 14070A   19259.82958184  .00000686  00000-0  35460-4 0  9998
2 40298  97.4388 341.4162 0001673 103.0216  16.6724 15.19555228269630
HODOYOSHI-1             
1 40299U 14070B   19259.82817961  .00000364  00000-0  18172-4 0  9990
2 40299  97.3447 337.6940 0014561  85.2812 343.9209 15.23440339269994
CHUBUSAT-1              
1 40300U 14070C   19259.79445228  .00000519  00000-0  25473-4 0  9996
2 40300  97.3218 331.6736 0020968  97.3616  17.7918 15.22167095269722
QSAT-EOS                
1 40301U 14070D   19259.80749608  .00001175  00000-0  47871-4 0  9993
2 40301  97.3223 335.2095 0027312  80.8538  40.6781 15.26118454270035
TSUBAME                 
1 40302U 14070E   19259.76454828  .00000651  00000-0  34904-4 0  9997
2 40302  97.2770 314.9286 0039353 135.6296   3.7832 15.17727134268918
SL-24 R/B               
1 40303U 14070F   19258.83552599  .00000065  00000-0  24019-4 0  9994
2 40303  97.1654 168.3907 0957580 351.6883   6.9299 13.12984823232829